Aérodrome :
LOGIN :

S'inscrire | Disclaimer

   EN    FR    IT 

 










Légende :    VFR   VFR Marginal   IFR   IFR Intensif   IFR Très Intensif
Visi : 
Plafond : 
>= 8 km
>= 3000ft
5 à 8 km
1000 à 3000 ft
1500m à 5 km
500 à 1000 ft
800 à 1500m
200 à 500 ft
< 800m
< 200 ft
Symboles :   Orages  Brouillard  Fortes neiges  Fortes précipitations  Vent > 20 kt
SIGMETs :   Divers  Orages  Givrage  Turbulence  Onde Orograph.  Cendres Volcan.







- Altitude de l'aérodrome : 1090 ft
- Code IATA : CFE
- Voir les cartes d'approche


LFLC - Clermont-Ferrand Auvergne

DERNIER METAR :
  • 240930Z AUTO 36004KT 310V070 9999 FEW032 20/13 Q1024 NOSIG

METARs EXPIRÉS :
  • 240900Z AUTO VRB03KT CAVOK 20/13 Q1024 NOSIG
  • 240830Z AUTO VRB02KT 9999 FEW011 19/14 Q1025 NOSIG
  • 240800Z AUTO VRB03KT 9999 FEW009 18/14 Q1025 NOSIG
  • 240730Z AUTO VRB03KT 9999 BKN007 18/14 Q1025 BECMG FEW040
  • 240700Z AUTO 35005KT 320V040 9999 BKN013 17/14 Q1025 BECMG FEW040

TAF TAF LFLC
Valide du 24 à 09h jusqu'au 25 à 09h UTC


240800Z 2409/2509 01006KT CAVOK
ATIS : +33 4 73 62 74 38
Pas de NOTAMs connus pour ce terrain.



MET'MAP, la Météo Aéronautique d'un coup d'oeil ! - Copyright ORBIFLY Décembre 2007 - Disclaimer

ORBIFLY MET'MAP TEAM :

Programmation & Développement : Alexandra Zaïnal
Conception & Développement : Baudouin d'Aumeries
Co-Programmation & Développement : Marc-Olivier Méhu
Soutien technique & logistique : Manuel Goepfert

Contact : metmap@orbifly.com




SOURCES & CREDITS :

   NOAA